Wind_Speed
23 23 30 27 34 34 33 38 37 36 35 36 34 31 29 23 24 22 17 14 12 10 12 10 10 10 8 10 15 13 12 11 12 9 8 9 10 7 8 11 15 18 19
21 17 34 35 32 34 34 40 40 38 39 40 37 36 30 29 28 25 20 17 16 14 12 11 11 12 12 11 14 15 12 12 13 9 10 8 10 10 9 11 12 18 22
26 21 36 32 36 35 37 36 42 41 40 41 38 36 28 25 27 26 22 18 15 16 14 12 12 12 14 13 12 16 14 12 12 11 5 4 5 11 10 11 13 16 20
37 25 33 32 37 34 37 36 38 39 39 38 39 38 33 29 25 24 26 22 16 14 15 13 12 13 15 15 17 19 17 15 13 10 11 5 5 8 10 14 13 13 18
41 37 20 27 33 30 31 34 33 34 32 34 36 33 31 26 26 24 27 26 22 20 14 14 14 15 15 13 14 19 18 17 15 12 8 10 8 8 6 11 16 16 16
42 41 27 22 29 24 25 27 30 30 27 23 32 32 30 25 24 27 27 25 20 16 15 14 14 15 17 15 14 19 17 20 17 14 12 10 12 11 9 9 12 16 15
33 38 28 23 26 27 29 30 28 25 22 20 24 29 32 30 26 23 21 19 14 12 11 12 14 12 13 15 14 18 18 20 19 16 13 10 9 6 10 6 7 10 15
22 26 29 22 20 26 27 27 25 20 23 23 23 23 24 24 19 18 16 17 13 9 8 4 11 12 10 12 16 20 19 18 21 16 14 11 12 9 5 3 7 8 13
26 29 31 24 23 20 21 20 16 16 19 16 18 18 19 20 18 12 12 12 9 8 8 4 9 8 14 13 13 19 22 18 18 20 17 14 11 12 11 9 5 6 13
24 25 26 26 25 17 14 14 14 16 17 19 19 18 17 15 14 12 9 8 10 10 7 4 5 4 10 10 12 15 20 19 19 18 20 20 14 13 11 9 8 7 10
34 33 31 26 20 17 14 13 18 21 21 17 16 15 15 13 12 14 11 9 7 7 9 7 7 3 8 6 10 14 17 19 19 17 17 16 15 14 14 12 11 9 9
36 37 36 31 26 22 20 19 22 22 18 17 15 12 14 16 16 17 15 11 8 8 7 9 10 9 8 8 6 11 14 14 16 16 17 14 12 13 16 16 15 12 11
35 36 34 32 29 25 23 20 19 21 19 18 15 14 14 15 15 16 13 12 13 10 8 7 10 12 12 11 11 9 8 9 10 11 14 13 14 14 14 17 17 18 16
37 38 36 32 27 24 25 23 18 20 19 18 18 18 16 17 17 16 15 13 10 12 9 8 8 9 8 9 10 10 10 9 10 10 10 12 12 12 14 17 17 16 17
40 40 38 34 29 28 27 25 20 21 22 22 22 19 17 18 16 17 17 13 15 13 10 9 9 8 8 8 8 9 10 9 7 8 8 7 7 9 10 12 13 13 13
40 39 37 35 31 31 31 28 25 23 23 23 21 19 18 20 18 18 15 13 15 15 12 11 10 11 9 9 9 8 9 9 10 11 10 8 8 7 7 8 9 9 9
40 39 39 36 34 32 32 31 28 24 24 22 22 22 21 22 19 17 13 12 13 12 12 11 10 10 10 11 12 14 14 13 11 11 12 13 13 12 11 11 10 11 12
40 37 38 37 34 33 34 31 31 27 27 27 26 24 24 24 24 20 14 13 14 14 13 12 10 9 8 10 11 13 15 16 13 11 12 12 13 13 13 13 14 14 15
36 36 36 36 35 35 34 34 33 29 30 30 29 25 24 24 26 23 19 17 16 15 13 11 10 8 8 8 11 13 15 17 15 13 10 8 7 8 10 10 10 11 13
32 31 32 37 38 36 34 34 34 33 34 34 32 27 24 23 26 26 23 20 18 15 13 13 13 10 8 7 10 13 16 17 15 13 9 6 4 4 6 6 5 6 8
34 29 32 36 39 36 36 36 35 39 37 34 31 29 26 29 28 25 24 22 20 18 17 19 17 12 10 8 9 12 14 14 14 13 9 8 6 6 7 6 6 6 7
17 30 31 35 38 38 38 39 37 36 29 34 29 24 29 29 28 25 24 22 18 16 19 19 17 13 10 10 7 6 11 16 14 13 9 7 7 8 7 6 5 5 6
2 4 23 28 31 34 37 38 37 30 25 29 27 25 32 31 30 28 24 21 16 16 19 20 18 15 15 13 11 10 8 12 11 14 12 8 7 6 4 4 5 5 5
1 4 0 10 17 22 27 28 25 19 20 26 40 24 27 31 29 25 21 18 16 17 18 19 20 18 19 16 12 8 5 5 7 8 10 9 5 4 5 4 4 5 6
1 3 5 5 8 10 12 17 21 22 21 36 33 31 28 28 28 24 20 18 16 14 14 15 16 14 14 15 16 9 6 3 5 9 9 9 9 6 6 6 5 3 3
1 1 1 4 5 7 11 11 12 16 23 26 24 20 23 26 24 24 24 20 19 18 16 16 17 14 9 12 11 10 8 7 8 11 12 12 13 12 12 11 9 6 4
Wind_Direction
52 327 244 223 213 219 222 218 214 211 208 207 209 209 206 220 227 234 240 239 250 266 278 283 294 290 270 239 230 243 240 248 244 231 215 204 197 207 222 228 214 205 207
89 236 224 225 227 225 225 219 220 215 212 211 215 214 220 225 235 237 241 247 257 265 268 286 291 279 264 240 231 237 245 240 239 235 207 183 189 193 201 211 218 212 211
183 218 215 222 225 226 224 223 218 216 212 213 217 218 213 219 227 232 241 252 265 271 277 290 290 271 257 248 238 233 240 230 235 222 205 191 175 188 198 201 202 208 211
208 211 219 216 213 223 225 225 217 218 214 220 222 225 220 232 236 239 237 242 256 268 270 280 284 269 262 259 249 227 225 220 226 224 205 217 224 178 180 203 202 201 214
201 209 215 219 219 223 226 224 215 223 225 230 225 226 226 232 243 249 239 243 255 264 268 279 270 264 259 260 222 211 212 219 218 211 209 209 194 198 180 197 204 210 208
217 221 221 204 213 221 227 230 227 229 233 230 227 226 229 232 251 241 248 240 252 260 274 278 268 261 255 240 218 211 212 212 212 220 208 214 219 217 206 211 204 220 212
214 224 221 219 220 223 226 229 227 233 236 232 229 231 234 238 245 242 230 236 248 260 268 269 270 262 241 233 217 211 213 214 212 219 218 211 220 224 206 201 210 194 208
211 222 221 211 203 210 217 224 228 231 238 230 224 223 227 229 218 213 227 236 239 251 258 283 272 241 233 229 216 208 214 214 213 221 219 221 211 205 231 228 207 199 205
214 214 202 205 200 197 204 212 215 216 218 205 200 197 188 188 197 214 221 218 219 207 239 267 319 264 217 214 217 216 215 214 214 217 221 225 211 223 222 229 220 222 209
205 199 188 185 191 186 186 191 194 189 175 165 166 174 182 193 201 211 231 221 225 224 224 256 309 313 186 197 201 214 217 219 222 220 226 231 224 216 223 236 224 227 240
190 188 183 181 185 181 180 184 176 172 162 162 166 173 185 193 204 213 217 186 186 204 219 228 222 126 135 146 188 201 217 219 218 222 222 219 216 223 220 225 232 236 239
188 188 183 183 185 180 183 181 172 170 175 169 172 169 183 191 199 205 190 200 212 205 204 212 199 185 168 139 164 198 208 207 216 217 221 221 217 223 224 229 234 240 240
178 180 182 182 184 183 183 180 173 172 178 176 175 178 188 187 184 185 189 188 197 181 161 178 177 175 186 189 191 193 183 201 207 219 226 237 239 237 236 240 247 246 243
186 186 180 184 186 188 186 181 172 175 173 180 185 193 189 185 185 185 185 194 197 190 183 180 169 168 175 182 187 176 167 177 193 208 216 226 230 234 237 242 252 252 248
185 188 185 187 186 191 193 191 180 183 178 182 192 196 189 192 190 191 187 197 202 202 218 220 190 189 186 186 184 183 175 167 171 177 187 190 200 219 230 239 243 248 251
194 194 190 187 190 193 195 195 191 187 186 192 197 189 189 186 190 187 193 197 199 205 209 203 204 209 211 213 211 222 236 241 242 232 227 229 242 254 260 257 250 247 247
200 198 195 193 195 198 199 199 196 194 196 202 197 189 197 196 200 200 198 201 203 210 212 214 214 216 217 221 226 232 239 243 244 243 241 250 260 270 265 253 251 254 254
203 206 202 198 202 203 203 202 199 203 199 203 197 195 200 209 207 202 207 211 214 219 218 220 222 226 230 231 231 224 227 233 233 240 250 261 267 267 261 260 260 259 260
206 213 213 208 206 205 205 201 201 203 201 204 200 205 206 205 203 206 215 211 211 212 219 230 243 250 261 245 216 213 214 224 229 239 248 256 257 270 269 269 264 250 247
211 210 216 210 209 208 205 201 201 198 202 203 205 214 206 212 213 218 214 211 206 212 226 238 240 256 261 236 217 209 211 223 235 241 241 238 268 282 297 286 259 244 238
211 214 213 217 214 209 205 204 206 203 205 203 209 216 216 219 214 215 214 209 208 218 229 238 244 244 233 220 222 213 216 225 231 245 235 248 266 298 304 289 272 254 244
207 216 218 218 216 212 210 208 208 208 210 206 201 214 225 221 217 220 212 210 208 226 233 231 232 226 202 175 180 214 226 226 240 247 238 244 272 293 289 272 255 236 231
119 186 226 226 224 220 215 214 215 220 211 204 202 227 220 226 232 226 223 210 219 229 230 235 236 237 231 235 226 214 229 238 228 235 239 252 275 274 259 234 211 207 213
89 73 87 228 233 225 227 230 230 227 248 242 211 227 214 220 219 218 209 226 232 223 231 239 239 235 238 220 189 187 180 227 234 242 255 266 255 227 215 207 213 232 236
153 203 174 192 227 231 235 243 246 253 241 252 243 227 222 216 209 212 221 212 226 242 242 248 247 237 221 221 213 188 189 242 286 281 260 252 239 229 215 214 216 215 235
211 257 255 257 264 265 258 243 239 233 244 248 236 212 210 209 208 205 197 210 215 218 223 222 216 221 217 208 221 211 220 257 282 275 265 252 229 225 223 224 227 228 252
Height
1499 1513 1516 1511 1507 1513 1514 1517 1519 1524 1527 1531 1533 1536 1538 1539 1541 1543 1546 1548 1549 1550 1550 1551 1551 1551 1551 1551 1552 1554 1555 1557 1558 1557 1559 1559 1561 1561 1561 1562 1566 1569 1573
1497 1495 1495 1503 1504 1508 1509 1512 1515 1519 1521 1525 1529 1531 1534 1537 1539 1540 1543 1545 1546 1546 1547 1547 1547 1548 1547 1547 1548 1551 1553 1555 1556 1557 1557 1559 1561 1560 1561 1562 1564 1567 1570
1482 1482 1487 1490 1496 1502 1505 1508 1510 1515 1518 1522 1527 1528 1531 1534 1535 1538 1541 1542 1543 1544 1543 1543 1543 1543 1542 1544 1546 1548 1551 1553 1554 1554 1556 1556 1556 1558 1559 1560 1562 1564 1567
1480 1479 1477 1483 1491 1496 1502 1505 1508 1512 1516 1521 1523 1524 1524 1529 1531 1532 1537 1538 1540 1540 1541 1540 1540 1540 1539 1539 1542 1545 1548 1550 1551 1553 1554 1555 1555 1556 1558 1559 1560 1562 1564
1476 1473 1475 1482 1489 1494 1499 1504 1507 1512 1514 1518 1518 1521 1523 1525 1527 1529 1532 1534 1536 1537 1538 1538 1538 1538 1537 1537 1538 1541 1544 1547 1550 1551 1552 1553 1553 1554 1554 1555 1557 1560 1561
1475 1477 1481 1485 1489 1493 1497 1500 1503 1508 1511 1513 1516 1518 1521 1522 1523 1525 1527 1529 1531 1533 1535 1536 1536 1536 1535 1535 1536 1539 1542 1545 1547 1549 1550 1551 1552 1552 1553 1553 1554 1556 1559
1474 1475 1476 1480 1486 1491 1494 1496 1500 1505 1506 1509 1512 1514 1517 1518 1519 1520 1523 1525 1528 1530 1532 1532 1531 1532 1531 1532 1534 1537 1540 1543 1545 1548 1549 1550 1551 1551 1551 1552 1552 1553 1555
1471 1471 1476 1478 1482 1486 1490 1494 1498 1500 1503 1504 1506 1510 1513 1514 1515 1517 1519 1522 1525 1528 1529 1522 1527 1528 1528 1530 1532 1535 1539 1542 1544 1546 1548 1549 1550 1550 1550 1551 1552 1552 1553
1466 1471 1474 1477 1480 1483 1488 1493 1496 1496 1500 1501 1504 1507 1509 1511 1512 1515 1517 1519 1521 1524 1526 1525 1525 1523 1521 1525 1529 1533 1537 1540 1542 1544 1546 1547 1549 1550 1550 1550 1551 1551 1551
1463 1467 1469 1473 1478 1484 1487 1491 1494 1496 1498 1500 1504 1506 1508 1510 1513 1515 1516 1517 1519 1522 1523 1522 1523 1522 1520 1522 1526 1530 1535 1537 1539 1542 1544 1545 1547 1548 1549 1549 1550 1551 1551
1460 1464 1469 1475 1479 1484 1488 1490 1492 1495 1496 1500 1503 1505 1507 1509 1512 1514 1516 1517 1518 1521 1521 1522 1522 1522 1523 1521 1524 1527 1531 1534 1536 1539 1540 1542 1544 1544 1546 1547 1548 1549 1549
1458 1464 1468 1474 1478 1482 1487 1489 1490 1491 1495 1499 1501 1503 1504 1507 1510 1513 1515 1516 1518 1520 1522 1522 1523 1522 1524 1523 1522 1524 1529 1530 1533 1535 1537 1539 1540 1541 1542 1544 1545 1546 1548
1461 1466 1469 1472 1475 1478 1484 1487 1488 1490 1493 1496 1498 1501 1503 1506 1509 1511 1513 1515 1517 1518 1520 1520 1522 1523 1523 1524 1526 1527 1526 1528 1531 1532 1534 1535 1537 1538 1539 1541 1542 1543 1545
1455 1460 1463 1467 1471 1475 1480 1484 1487 1488 1490 1492 1496 1500 1503 1504 1507 1508 1511 1514 1515 1516 1517 1519 1520 1521 1522 1523 1524 1525 1525 1526 1528 1529 1530 1531 1532 1533 1535 1537 1538 1539 1541
1453 1455 1458 1463 1466 1471 1476 1482 1484 1486 1488 1490 1494 1497 1501 1504 1506 1508 1511 1512 1513 1514 1515 1517 1518 1520 1521 1522 1524 1524 1524 1525 1527 1528 1527 1528 1529 1530 1532 1534 1535 1536 1537
1449 1452 1455 1460 1463 1466 1471 1476 1481 1483 1486 1489 1493 1496 1499 1502 1505 1508 1510 1512 1513 1514 1515 1516 1517 1518 1520 1521 1522 1522 1522 1523 1524 1525 1525 1526 1527 1529 1530 1532 1532 1533 1533
1444 1447 1450 1454 1459 1462 1467 1470 1476 1481 1484 1487 1491 1494 1497 1500 1503 1505 1509 1511 1512 1513 1514 1515 1515 1516 1517 1518 1519 1520 1520 1522 1522 1523 1524 1525 1525 1526 1527 1528 1529 1530 1530
1443 1446 1448 1452 1456 1460 1464 1467 1472 1477 1481 1485 1488 1492 1495 1497 1500 1503 1506 1509 1511 1511 1512 1513 1514 1514 1515 1515 1515 1516 1518 1520 1521 1522 1523 1523 1522 1522 1523 1524 1525 1526 1527
1437 1439 1443 1447 1452 1456 1461 1465 1468 1472 1477 1482 1485 1490 1492 1493 1496 1499 1502 1503 1507 1508 1510 1512 1513 1513 1513 1512 1512 1513 1514 1517 1519 1521 1521 1520 1519 1519 1519 1519 1520 1520 1521
1435 1435 1439 1443 1449 1453 1458 1462 1464 1467 1472 1476 1481 1484 1487 1491 1492 1495 1498 1500 1503 1506 1508 1510 1511 1511 1511 1510 1510 1511 1512 1514 1516 1518 1518 1518 1517 1516 1516 1516 1517 1517 1518
1432 1435 1435 1440 1444 1450 1454 1458 1461 1462 1466 1474 1478 1481 1482 1482 1488 1491 1493 1496 1499 1502 1505 1507 1508 1508 1507 1508 1509 1509 1509 1511 1515 1516 1516 1516 1516 1515 1514 1514 1514 1514 1514
1432 1434 1436 1437 1443 1447 1450 1455 1458 1461 1469 1472 1472 1478 1480 1481 1483 1486 1489 1492 1495 1498 1502 1503 1505 1505 1506 1505 1506 1506 1507 1509 1513 1514 1514 1513 1513 1513 1513 1512 1512 1512 1513
1434 1434 1436 1439 1445 1449 1452 1455 1457 1462 1469 1465 1458 1474 1474 1478 1479 1482 1487 1491 1493 1495 1498 1500 1502 1503 1503 1502 1505 1504 1504 1508 1511 1512 1512 1512 1511 1511 1511 1511 1511 1511 1512
1436 1438 1439 1442 1446 1449 1452 1457 1459 1460 1457 1461 1462 1464 1468 1470 1473 1477 1484 1488 1490 1492 1496 1498 1499 1500 1501 1501 1501 1502 1504 1507 1508 1509 1509 1509 1508 1509 1509 1509 1511 1511 1511
1437 1438 1439 1442 1445 1448 1453 1456 1455 1456 1456 1459 1459 1461 1463 1462 1466 1473 1479 1484 1489 1490 1492 1495 1496 1496 1497 1499 1500 1501 1503 1505 1505 1506 1508 1508 1507 1507 1508 1509 1509 1510 1510
1441 1442 1441 1441 1444 1445 1446 1449 1451 1450 1457 1459 1457 1458 1460 1463 1467 1469 1473 1478 1482 1485 1488 1490 1493 1495 1497 1498 1500 1501 1502 1503 1504 1505 1504 1504 1505 1505 1507 1508 1508 1509 1510